1491051600.39,44319,16.06,73892.0,12.17,-25.39,-25.49,0,*44
1491051601.65,44320,16.06,73892.3,12.15,-25.71,-25.81,0,*44
1491051602.91,44321,16.06,73896.3,12.13,-25.03,-24.97,0,*40
1491051604.16,44322,16.06,73892.3,12.13,-24.61,-24.71,0,*4E
1491051605.43,44323,16.06,73892.8,12.11,-24.71,-24.67,0,*4B
1491051606.66,44324,16.06,73890.8,12.11,-23.85,-23.75,0,*44
1491051607.86,44325,16.06,73892.8,12.11,-23.39,-23.39,0,*4A
1491051609.14,44326,16.06,73888.8,12.13,-24.71,-24.67,0,*4C
1491051610.37,44327,16.06,73890.5,12.13,-24.35,-24.31,0,*4E
1491051611.6,44328,16.06,73894.5,12.11,-23.39,-23.49,0,*40
1491051612.81,44329,16.06,73890.5,12.11,-24.51,-24.47,0,*41
1491051614.09,44330,16.06,73892.0,12.13,-24.15,-23.99,0,*4F
1491051615.32,44331,16.06,73890.8,12.13,-24.31,-24.31,0,*4D
1491051616.55,44332,16.06,73888.5,12.11,-25.35,-25.45,0,*4B
1491051617.8,44333,16.06,73888.8,12.11,-23.65,-23.49,0,*43
1491051619.04,44334,16.06,73890.3,12.11,-23.19,-23.09,0,*4B
1491051620.29,44335,16.06,73894.8,12.13,-22.73,-22.67,0,*4C
1491051621.53,44336,16.06,73890.3,12.13,-23.75,-23.75,0,*4A
1491051622.8,44337,16.06,73892.5,12.13,-24.67,-24.67,0,*4B
1491051624.03,44338,16.06,73894.5,12.13,-23.89,-23.75,0,*47
1491051625.25,44339,16.06,73894.5,12.13,-23.39,-23.39,0,*45
1491051626.51,44340,16.06,73888.8,12.13,-23.85,-23.75,0,*44
1491051627.76,44341,16.06,73890.5,12.15,-23.49,-23.33,0,*41
1491051628.99,44342,16.06,73894.3,12.17,-23.89,-23.79,0,*42
1491051630.22,44343,16.06,73890.3,12.15,-23.49,-23.43,0,*44
1491051631.45,44344,16.06,73892.5,12.15,-23.85,-23.79,0,*4A
1491051632.71,44345,16.06,73892.5,12.15,-23.99,-23.85,0,*45
1491051633.96,44346,16.06,73892.0,12.15,-24.15,-23.99,0,*48
1491051635.23,44347,16.06,73888.3,12.15,-24.41,-24.25,0,*48
1491051636.47,44348,16.06,73888.8,12.15,-24.15,-23.95,0,*4A
1491051637.75,44349,16.06,73888.5,12.13,-23.85,-23.65,0,*4C
1491051639.02,44350,16.06,73888.0,12.13,-23.85,-23.69,0,*48
1491051640.27,44351,16.06,73890.8,12.13,-22.87,-22.73,0,*40
1491051641.52,44352,16.06,73888.0,12.15,-23.99,-24.11,0,*49
1491051642.78,44353,16.06,73886.5,12.15,-23.49,-23.29,0,*49
1491051644.03,44354,16.06,73886.5,12.15,-23.65,-23.33,0,*4B
1491051645.28,44355,16.06,73890.5,12.15,-24.15,-24.11,0,*4D
1491051646.51,44356,16.06,73884.3,12.15,-23.03,-22.87,0,*47
1491051647.74,44357,16.06,73886.5,12.17,-23.79,-23.75,0,*45
1491051648.98,44358,16.06,73888.0,12.17,-23.13,-22.97,0,*4B
1491051650.21,44359,16.06,73888.5,12.17,-22.93,-22.63,0,*48
1491051651.42,44360,16.06,73890.0,12.15,-22.97,-22.63,0,*44
1491051652.68,44361,16.06,73888.0,12.17,-23.23,-22.97,0,*42
1491051653.91,44362,16.06,73888.5,12.17,-22.67,-22.57,0,*4C
1491051655.16,44363,16.06,73892.0,12.21,-22.37,-22.21,0,*4C
1491051656.44,44364,16.06,73890.8,12.21,-23.19,-23.03,0,*47
1491051657.65,44365,16.06,73892.3,12.19,-24.05,-23.89,0,*45
1491051658.94,44366,16.06,73890.3,12.21,-24.21,-24.21,0,*4E
1491051660.15,44367,16.06,73890.3,12.19,-24.35,-24.31,0,*40
1491051661.38,44368,16.06,73890.3,12.19,-25.03,-24.51,0,*4D
1491051662.63,44369,16.06,73888.5,12.17,-23.23,-23.13,0,*47
1491051663.87,44370,16.06,73890.3,12.17,-23.09,-23.09,0,*4C
1491051665.1,44371,16.06,73890.5,12.17,-24.05,-23.79,0,*41
1491051666.31,44372,16.06,73890.0,12.15,-23.89,-23.75,0,*4F
1491051667.57,44373,16.06,73886.5,12.15,-25.75,-25.71,0,*49
1491051668.82,44374,16.06,73888.5,12.15,-24.15,-23.99,0,*49
1491051670.08,44375,16.06,73890.5,12.15,-24.41,-24.15,0,*4A
1491051671.29,44376,16.06,73888.8,12.15,-25.13,-25.09,0,*43
1491051672.54,44377,16.06,73890.0,12.13,-25.81,-25.65,0,*45
1491051673.81,44378,16.06,73888.0,12.11,-26.97,-26.81,0,*45
1491051675.04,44379,16.06,73890.3,12.11,-25.03,-24.97,0,*4F
1491051676.24,44380,16.06,73886.0,12.07,-25.39,-25.23,0,*49
1491051677.46,44381,16.06,73888.3,12.07,-24.35,-23.95,0,*4E
1491051678.66,44382,16.06,73888.3,12.07,-25.09,-24.93,0,*42
1491051679.86,44383,16.13,73890.8,12.07,-25.91,-25.87,0,*46
1491051681.12,44384,16.06,73886.5,12.01,-24.87,-24.77,0,*4F
1491051682.38,44385,16.06,73888.8,12.01,-25.61,-25.45,0,*47
1491051683.6,44386,16.06,73890.8,12.05,-24.93,-24.61,0,*4B
1491051684.85,44387,16.13,73888.5,12.01,-24.87,-24.51,0,*48
1491051686.08,44388,16.06,73886.5,11.99,-24.67,-24.61,0,*48
1491051687.38,44389,16.13,73888.5,12.01,-26.33,-26.33,0,*4D
1491051688.62,44390,16.06,73886.5,11.97,-26.03,-26.03,0,*49
1491051689.88,44391,16.06,73888.3,11.97,-25.55,-25.35,0,*4E
1491051691.14,44392,16.06,73886.5,11.97,-25.55,-25.35,0,*4D
1491051692.41,44393,16.13,73890.5,11.95,-25.45,-25.29,0,*42
1491051693.65,44394,16.06,73888.5,11.93,-24.47,-24.25,0,*4D
1491051694.89,44395,16.06,73890.3,11.93,-24.71,-24.47,0,*4D
1491051696.14,44396,16.13,73890.8,11.95,-25.45,-25.39,0,*46
1491051697.37,44397,16.13,73890.5,11.93,-24.71,-24.57,0,*4E
1491051698.62,44398,16.13,73888.0,11.93,-23.99,-23.99,0,*45
1491051699.85,44399,16.13,73888.3,11.93,-23.99,-23.89,0,*45
1491051701.11,44400,16.06,73890.0,11.95,-23.29,-22.97,0,*41
1491051702.33,44401,16.06,73888.8,11.95,-25.09,-24.93,0,*46
1491051703.54,44402,16.13,73890.5,11.93,-24.77,-24.61,0,*46
1491051704.77,44403,16.06,73888.3,11.93,-24.71,-24.57,0,*44
1491051706.0,44404,16.13,73892.3,11.95,-25.39,-25.13,0,*49
1491051707.22,44405,16.06,73888.0,11.93,-24.15,-23.89,0,*44
1491051708.45,44406,16.13,73894.3,11.93,-23.33,-23.13,0,*47
1491051709.69,44407,16.06,73888.3,11.95,-23.75,-23.59,0,*4C
1491051710.92,44408,16.06,73888.0,11.95,-24.47,-24.31,0,*4C
1491051712.19,44409,16.06,73888.5,11.95,-24.77,-24.71,0,*4A
1491051713.39,44410,16.13,73888.3,11.93,-24.77,-24.57,0,*40
1491051714.61,44411,16.13,73888.0,11.93,-24.97,-24.87,0,*42
1491051715.89,44412,16.13,73888.5,11.95,-26.29,-26.29,0,*46
1491051717.16,44413,16.06,73888.0,11.93,-25.71,-25.55,0,*47
1491051718.39,44414,16.06,73888.5,11.91,-25.65,-25.65,0,*44
1491051719.62,44415,16.13,73890.8,11.91,-25.49,-25.49,0,*45
1491051720.87,44416,16.13,73894.3,11.91,-24.05,-23.99,0,*44
1491051722.07,44417,16.13,73894.3,11.89,-25.35,-25.23,0,*49
1491051723.32,44418,16.06,73890.5,11.91,-25.49,-25.45,0,*44
1491051724.57,44419,16.13,73892.8,11.89,-25.81,-25.81,0,*40
1491051725.83,44420,16.13,73892.5,11.89,-25.81,-25.71,0,*45
1491051727.08,44421,16.13,73892.8,11.87,-24.83,-24.51,0,*4A
1491051728.3,44422,16.13,73894.3,11.85,-24.47,-24.31,0,*45
1491051729.56,44423,16.06,73888.3,11.87,-24.25,-24.05,0,*45
1491051730.82,44424,16.06,73886.8,11.87,-23.53,-23.43,0,*41
1491051732.07,44425,16.13,73888.8,11.89,-23.85,-23.69,0,*4D
1491051733.34,44426,16.06,73886.8,11.89,-24.25,-24.21,0,*48
1491051734.59,44427,16.13,73888.5,11.91,-24.21,-24.05,0,*42
1491051735.82,44428,16.13,73890.5,11.91,-24.05,-23.79,0,*47
1491051737.04,44429,16.13,73888.3,11.89,-23.29,-23.13,0,*4A
1491051738.32,44430,16.13,73888.8,11.91,-23.53,-23.53,0,*42
1491051739.54,44431,16.13,73892.3,11.91,-24.61,-24.35,0,*42
1491051740.76,44432,16.13,73892.8,11.91,-25.13,-24.97,0,*4D
1491051741.97,44433,16.13,73890.8,11.89,-24.51,-24.35,0,*4A
1491051743.2,44434,16.06,73888.8,11.93,-24.61,-24.41,0,*46
1491051744.45,44435,16.06,73888.8,11.91,-24.35,-24.21,0,*42
1491051745.68,44436,16.06,73890.3,11.91,-24.05,-23.79,0,*48
1491051746.94,44437,16.13,73892.8,11.91,-23.69,-23.65,0,*49
1491051748.17,44438,16.13,73890.5,11.91,-23.09,-22.87,0,*4D
1491051749.41,44439,16.13,73894.3,11.95,-23.75,-23.59,0,*41
1491051750.63,44440,16.06,73888.3,11.93,-24.11,-23.89,0,*41
1491051751.89,44441,16.13,73886.8,11.95,-23.43,-23.19,0,*4F
1491051753.13,44442,16.06,73886.3,11.95,-23.75,-23.59,0,*4D
1491051754.4,44443,16.13,73888.5,11.95,-24.11,-23.95,0,*49
1491051755.66,44444,16.13,73888.0,11.97,-24.35,-24.11,0,*41
1491051756.86,44445,16.13,73890.3,11.93,-23.79,-23.59,0,*40
1491051758.12,44446,16.13,73892.5,11.95,-23.75,-23.33,0,*45
1491051759.4,44447,16.13,73892.0,11.95,-23.33,-23.19,0,*4E
1491051760.67,44448,16.13,73892.0,11.95,-23.43,-23.19,0,*46
1491051761.95,44449,16.13,73890.0,11.95,-23.19,-23.03,0,*43
1491051763.18,44450,16.13,73888.8,11.99,-23.23,-23.09,0,*44
1491051764.43,44451,16.13,73890.8,11.99,-24.87,-24.67,0,*43
1491051765.67,44452,16.13,73888.3,11.97,-25.49,-25.35,0,*4B
1491051766.94,44453,16.13,73890.8,11.97,-25.03,-24.83,0,*48
1491051768.2,44454,16.13,73892.5,11.95,-24.31,-24.15,0,*42
1491051769.48,44455,16.13,73888.5,11.95,-23.29,-23.03,0,*4D
1491051770.75,44456,16.13,73890.0,11.97,-23.43,-23.23,0,*42
1491051772.0,44457,16.13,73892.5,11.97,-24.21,-23.89,0,*40
1491051773.22,44458,16.13,73888.0,11.99,-24.51,-24.31,0,*42
1491051774.44,44459,16.13,73890.0,11.97,-25.35,-25.19,0,*45
1491051775.67,44460,16.13,73890.3,11.97,-25.23,-24.93,0,*4B
1491051776.87,44461,16.13,73886.8,11.93,-24.77,-24.57,0,*46
1491051778.12,44462,16.06,73888.3,11.95,-23.95,-23.75,0,*4F
1491051779.33,44463,16.13,73890.0,11.93,-24.61,-24.47,0,*42
1491051780.52,44464,16.13,73888.0,11.93,-25.23,-24.97,0,*4F
1491051781.72,44465,16.13,73888.0,11.93,-24.97,-24.77,0,*4E
1491051782.99,44466,16.13,73888.8,11.95,-23.75,-23.49,0,*4A
1491051784.21,44467,16.13,73890.0,11.93,-23.99,-23.89,0,*43
1491051785.44,44468,16.13,73892.3,11.93,-24.31,-24.15,0,*4B
1491051786.66,44469,16.13,73890.5,11.93,-24.31,-24.11,0,*4E
1491051787.94,44470,16.13,73890.0,11.91,-23.65,-23.49,0,*48
1491051789.14,44471,16.13,73890.5,11.93,-24.61,-24.47,0,*41
1491051790.38,44472,16.13,73890.5,11.93,-24.15,-23.95,0,*49
1491051791.66,44473,16.13,73886.8,11.95,-23.65,-23.33,0,*42
1491051792.92,44474,16.13,73888.8,11.93,-23.29,-23.03,0,*48
1491051794.17,44475,16.13,73888.8,11.95,-23.43,-23.29,0,*4B
1491051795.38,44476,16.13,73888.3,11.93,-23.79,-23.75,0,*4E
1491051796.64,44477,16.13,73890.3,11.95,-23.79,-23.49,0,*46
1491051797.92,44478,16.13,73890.8,11.95,-23.33,-23.03,0,*49
1491051799.18,44479,16.13,73890.0,11.97,-23.95,-23.75,0,*47
1491051800.43,44480,16.13,73888.5,11.95,-23.99,-23.79,0,*43
1491051801.71,44481,16.13,73890.5,11.95,-23.49,-23.29,0,*4A
1491051802.99,44482,16.13,73890.8,11.95,-23.29,-23.03,0,*47
1491051804.25,44483,16.13,73884.0,11.95,-22.67,-22.47,0,*4C
1491051805.49,44484,16.13,73892.0,11.97,-23.13,-22.93,0,*42
1491051806.71,44485,16.13,73890.3,11.97,-23.39,-23.13,0,*42
1491051807.97,44486,16.13,73888.3,11.99,-23.49,-23.19,0,*42
1491051809.23,44487,16.13,73890.0,11.97,-23.95,-23.75,0,*46
1491051810.49,44488,16.13,73888.3,11.99,-23.49,-23.23,0,*45
1491051811.72,44489,16.13,73888.3,11.99,-23.39,-23.19,0,*4A
1491051812.95,44490,16.13,73890.3,11.99,-23.19,-22.87,0,*46
1491051814.16,44491,16.13,73888.3,11.99,-22.93,-22.83,0,*40
1491051815.42,44492,16.13,73888.5,12.01,-23.23,-23.09,0,*48
1491051816.68,44493,16.13,73888.3,12.01,-23.39,-23.19,0,*43
1491051817.95,44494,16.13,73884.0,12.05,-23.49,-23.29,0,*44
1491051819.24,44495,16.13,73884.5,12.01,-24.21,-24.15,0,*40
1491051820.51,44496,16.13,73888.0,12.05,-23.85,-23.49,0,*40
1491051821.75,44497,16.13,73888.5,12.05,-23.75,-23.59,0,*4F
1491051823.0,44498,16.13,73892.8,12.05,-24.31,-24.11,0,*4C
1491051824.26,44499,16.13,73890.5,12.05,-24.31,-24.15,0,*49
1491051825.51,44500,16.13,73890.3,12.01,-23.99,-23.89,0,*4B
1491051826.77,44501,16.13,73888.5,12.05,-23.65,-23.43,0,*4B
1491051828.05,44502,16.13,73892.3,12.01,-24.15,-23.99,0,*4B
1491051829.31,44503,16.13,73890.0,12.05,-24.83,-24.61,0,*41
1491051830.56,44504,16.13,73890.5,12.01,-23.79,-23.53,0,*46
1491051831.84,44505,16.13,73890.8,12.05,-24.15,-23.85,0,*45
1491051833.07,44506,16.13,73890.3,12.05,-23.79,-23.75,0,*44
1491051834.34,44507,16.13,73892.8,12.01,-24.35,-24.21,0,*48
1491051835.59,44508,16.13,73892.8,12.05,-23.99,-23.79,0,*48
1491051836.84,44509,16.13,73888.0,12.05,-23.59,-23.29,0,*40
1491051838.13,44510,16.13,73890.5,12.01,-23.65,-23.49,0,*45
1491051839.36,44511,16.13,73892.0,12.05,-23.75,-23.75,0,*4E
1491051840.6,44512,16.13,73892.5,12.01,-24.77,-24.61,0,*4E
1491051841.85,44513,16.13,73888.0,12.05,-24.97,-24.83,0,*49
1491051843.08,44514,16.13,73890.0,12.05,-24.61,-24.47,0,*4F
1491051844.34,44515,16.13,73890.5,12.01,-24.87,-24.77,0,*41
1491051845.6,44516,16.13,73888.8,12.05,-24.71,-24.77,0,*4F
1491051846.83,44517,16.13,73888.0,11.99,-25.29,-25.13,0,*47
1491051848.06,44518,16.13,73888.0,11.99,-24.67,-24.47,0,*43
1491051849.3,44519,16.13,73890.8,11.99,-24.35,-24.21,0,*45
1491051850.55,44520,16.13,73890.8,11.99,-23.69,-23.49,0,*48
1491051851.78,44521,16.13,73892.5,11.99,-24.15,-23.89,0,*49
1491051853.0,44522,16.13,73886.8,11.99,-24.15,-23.89,0,*4A
1491051854.22,44523,16.13,73888.8,11.99,-24.47,-24.31,0,*48
1491051855.45,44524,16.13,73890.0,11.99,-24.31,-24.15,0,*48
1491051856.7,44525,16.13,73890.8,11.99,-23.65,-23.53,0,*4A
1491051857.91,44526,16.13,73890.0,11.99,-22.57,-22.41,0,*4B
1491051859.16,44527,16.13,73888.3,12.05,-22.87,-22.77,0,*44
1491051860.42,44528,16.13,73888.0,12.01,-23.85,-23.79,0,*43
1491051861.69,44529,16.13,73888.5,12.01,-24.15,-24.15,0,*41
1491051862.98,44530,16.13,73888.3,12.05,-24.71,-24.71,0,*4D
1491051864.25,44531,16.13,73890.5,12.01,-25.75,-25.65,0,*49
1491051865.51,44532,16.13,73888.5,12.01,-24.31,-23.99,0,*4E
1491051866.79,44533,16.13,73884.5,12.05,-23.95,-23.85,0,*4F
1491051868.07,44534,16.13,73888.5,12.01,-25.29,-25.29,0,*4D
1491051869.31,44535,16.13,73890.8,12.01,-24.61,-24.31,0,*49
1491051870.53,44536,16.13,73892.5,11.99,-23.69,-23.39,0,*48
1491051871.78,44537,16.13,73894.0,11.99,-24.87,-24.87,0,*4C
1491051872.99,44538,16.13,73892.5,11.99,-26.45,-26.45,0,*43
1491051874.26,44539,16.13,73892.8,11.97,-26.03,-25.97,0,*42
1491051875.52,44540,16.13,73888.3,11.95,-26.29,-26.39,0,*41
1491051876.77,44541,16.13,73892.8,11.93,-27.45,-27.23,0,*47
1491051877.99,44542,16.13,73890.0,11.91,-26.61,-26.61,0,*46
1491051879.25,44543,16.13,73888.5,11.91,-26.45,-26.33,0,*46
1491051880.51,44544,16.13,73888.5,11.89,-25.71,-25.55,0,*4F
1491051881.76,44545,16.13,73890.0,11.89,-24.67,-24.41,0,*4C
1491051882.99,44546,16.13,73886.0,11.89,-24.51,-24.41,0,*4A
1491051884.25,44547,16.13,73890.5,11.89,-24.41,-24.25,0,*48
1491051885.51,44548,16.13,73890.8,11.89,-24.41,-24.25,0,*47
1491051886.76,44549,16.13,73890.5,11.89,-24.87,-24.71,0,*4D
1491051887.95,44550,16.13,73892.5,11.89,-24.97,-24.97,0,*4C
1491051889.18,44551,16.13,73888.3,11.89,-24.67,-24.51,0,*48
1491051890.38,44552,16.13,73890.3,11.89,-25.35,-25.35,0,*4E
1491051891.58,44553,16.13,73890.3,11.89,-24.51,-24.35,0,*4D
1491051892.83,44554,16.13,73888.5,11.89,-23.49,-23.33,0,*45
1491051894.04,44555,16.13,73888.0,11.89,-22.93,-22.87,0,*4C
1491051895.29,44556,16.13,73890.0,11.91,-23.53,-23.39,0,*4F
1491051896.52,44557,16.13,73890.5,11.89,-23.43,-23.23,0,*4D
1491051897.8,44558,16.13,73888.8,11.91,-23.33,-23.19,0,*45
1491051899.05,44559,16.13,73888.3,11.93,-23.65,-23.49,0,*40
1491051900.31,44560,16.13,73886.8,11.95,-22.97,-22.77,0,*4C
1491051901.59,44561,16.13,73888.0,11.95,-23.29,-23.03,0,*4B
1491051902.85,44562,16.13,73888.0,11.95,-23.19,-22.97,0,*47
1491051904.13,44563,16.13,73882.3,11.97,-24.25,-23.95,0,*4F
1491051905.39,44564,16.13,73888.8,11.97,-24.11,-24.05,0,*41
1491051906.67,44565,16.13,73884.0,11.97,-23.95,-23.69,0,*46
1491051907.9,44566,16.13,73884.0,11.99,-23.39,-23.23,0,*43
1491051909.13,44567,16.13,73890.0,11.97,-24.51,-24.57,0,*41
1491051910.38,44568,16.13,73888.0,11.97,-24.35,-24.11,0,*4E
1491051911.64,44569,16.13,73884.5,11.97,-23.43,-23.29,0,*45
1491051912.87,44570,16.13,73884.0,11.97,-25.19,-25.09,0,*40
1491051914.11,44571,16.13,73888.5,11.95,-24.47,-24.31,0,*43
1491051915.33,44572,16.13,73884.5,11.95,-24.97,-24.93,0,*45
1491051916.57,44573,16.13,73888.0,11.95,-24.61,-24.31,0,*45
1491051917.8,44574,16.13,73888.5,11.93,-24.77,-24.71,0,*47
1491051919.0,44575,16.13,73888.0,11.93,-25.39,-25.23,0,*4B
1491051920.22,44576,16.13,73890.0,11.95,-25.09,-24.93,0,*47
1491051921.45,44577,16.13,73888.3,11.93,-24.57,-24.41,0,*45
1491051922.68,44578,16.13,73886.5,11.93,-24.47,-24.15,0,*4A
1491051923.92,44579,16.13,73886.8,11.93,-24.15,-24.11,0,*48
1491051925.13,44580,16.13,73886.8,11.93,-24.57,-24.31,0,*4A
1491051926.38,44581,16.13,73884.8,11.93,-24.41,-24.25,0,*49
1491051927.61,44582,16.13,73884.5,11.93,-24.87,-24.77,0,*47
1491051928.83,44583,16.13,73886.5,11.93,-24.93,-24.71,0,*45
1491051930.09,44584,16.13,73884.8,11.91,-24.83,-24.61,0,*40
1491051931.35,44585,16.13,73880.5,11.91,-24.15,-23.95,0,*42
1491051932.59,44586,16.13,73886.0,11.91,-24.47,-24.31,0,*4F
1491051933.84,44587,16.13,73884.3,11.89,-24.11,-23.99,0,*41
1491051935.07,44588,16.13,73884.3,11.89,-24.05,-23.85,0,*46
1491051936.31,44589,16.13,73886.3,11.91,-23.95,-23.79,0,*43
1491051937.59,44590,16.13,73884.3,11.91,-23.53,-23.49,0,*42
1491051938.84,44591,16.13,73890.5,11.91,-24.67,-24.61,0,*4E
1491051940.05,44592,16.13,73890.0,11.89,-25.65,-25.65,0,*42
1491051941.3,44593,16.13,73890.3,11.91,-24.35,-24.15,0,*48
1491051942.55,44594,16.13,73890.8,11.91,-24.21,-24.05,0,*4B
1491051943.83,44595,16.13,73888.3,11.91,-23.99,-23.85,0,*41
1491051945.1,44596,16.13,73892.5,11.91,-23.85,-23.69,0,*4D
1491051946.37,44597,16.13,73886.8,11.91,-25.29,-25.29,0,*4E
1491051947.59,44598,16.13,73886.3,11.91,-25.35,-25.19,0,*4F
1491051948.84,44599,16.13,73888.5,11.89,-25.29,-25.03,0,*41
1491051950.09,44600,16.13,73888.3,11.91,-25.81,-25.65,0,*49
1491051951.29,44601,16.13,73888.0,11.89,-25.19,-25.23,0,*42
1491051952.55,44602,16.13,73890.3,11.89,-24.41,-24.21,0,*4E
1491051953.79,44603,16.13,73888.3,11.89,-24.35,-24.21,0,*4C
1491051955.04,44604,16.13,73892.0,11.89,-24.25,-24.11,0,*49
1491051956.31,44605,16.13,73890.8,11.91,-24.15,-23.95,0,*49
1491051957.56,44606,16.13,73888.0,11.91,-24.05,-23.85,0,*4A
1491051958.82,44607,16.13,73888.3,11.89,-24.41,-24.21,0,*4B
1491051960.05,44608,16.13,73892.5,11.89,-24.57,-24.41,0,*45
1491051961.32,44609,16.13,73890.0,11.91,-24.83,-24.67,0,*40
1491051962.54,44610,16.13,73890.3,11.89,-25.09,-24.67,0,*42
1491051963.79,44611,16.13,73890.0,11.91,-23.95,-23.79,0,*41
1491051965.04,44612,16.13,73890.3,11.89,-23.85,-23.69,0,*4B
1491051966.29,44613,16.13,73888.3,11.89,-24.25,-24.11,0,*4F
1491051967.54,44614,16.13,73888.5,11.91,-25.29,-25.19,0,*45
1491051968.76,44615,16.13,73886.8,11.89,-25.81,-25.87,0,*48
1491051970.0,44616,16.13,73886.8,11.89,-26.03,-25.97,0,*43
1491051971.26,44617,16.13,73890.3,11.87,-26.13,-26.03,0,*43
1491051972.47,44618,16.19,73892.8,11.85,-25.13,-25.09,0,*44
1491051973.76,44619,16.13,73890.8,11.87,-24.83,-24.71,0,*41
1491051974.99,44620,16.13,73888.3,11.87,-25.39,-25.35,0,*4A
1491051976.19,44621,16.13,73890.0,11.85,-26.23,-26.23,0,*45
1491051977.45,44622,16.13,73888.0,11.81,-26.97,-26.97,0,*42
1491051978.71,44623,16.13,73890.3,11.79,-26.13,-26.23,0,*47
1491051979.97,44624,16.13,73888.8,11.79,-27.23,-27.29,0,*49
1491051981.23,44625,16.13,73890.3,11.75,-26.87,-26.81,0,*48
1491051982.48,44626,16.13,73890.3,11.73,-27.45,-27.39,0,*40
1491051983.73,44627,16.19,73892.3,11.71,-26.49,-26.39,0,*4F
1491051984.99,44628,16.13,73888.0,11.69,-25.81,-25.75,0,*45
1491051986.23,44629,16.13,73888.3,11.69,-25.49,-25.29,0,*49
1491051987.44,44630,16.19,73890.5,11.69,-25.13,-25.13,0,*47
1491051988.68,44631,16.13,73890.8,11.71,-24.77,-24.61,0,*48
1491051989.95,44632,16.19,73890.5,11.71,-24.47,-24.25,0,*48
1491051991.16,44633,16.13,73884.8,11.69,-24.61,-24.47,0,*40
1491051992.45,44634,16.19,73890.5,11.71,-24.25,-23.99,0,*4A
1491051993.73,44635,16.19,73888.8,11.71,-24.15,-23.99,0,*48
1491051994.96,44636,16.13,73890.8,11.71,-24.97,-24.93,0,*4C
1491051996.22,44637,16.13,73890.0,11.71,-24.67,-24.61,0,*4F
1491051997.46,44638,16.13,73892.0,11.71,-25.13,-25.13,0,*46
1491051998.74,44639,16.13,73890.8,11.71,-24.11,-24.11,0,*47
1491052000.03,44640,16.19,73892.5,11.71,-23.53,-23.19,0,*47
1491052001.29,44641,16.19,73890.8,11.71,-23.13,-23.03,0,*49
1491052002.52,44642,16.13,73888.5,11.75,-22.87,-22.63,0,*45
1491052003.77,44643,16.19,73892.3,11.75,-22.87,-22.73,0,*45
1491052005.05,44644,16.13,73890.3,11.79,-23.99,-23.95,0,*49
1491052006.31,44645,16.13,73892.0,11.81,-24.21,-23.99,0,*47
1491052007.59,44646,16.13,73892.0,11.79,-23.99,-23.99,0,*47
1491052008.87,44647,16.13,73888.8,11.79,-24.11,-24.11,0,*46
1491052010.15,44648,16.19,73898.0,11.79,-24.15,-23.99,0,*4A
1491052011.36,44649,16.19,73892.5,11.81,-24.77,-24.61,0,*48
1491052012.59,44650,16.13,73892.3,11.79,-25.13,-25.09,0,*4B
1491052013.83,44651,16.19,73894.3,11.79,-25.19,-25.13,0,*4B
1491052015.11,44652,16.19,73894.0,11.75,-26.13,-26.13,0,*4E
1491052016.37,44653,16.13,73890.0,11.73,-27.35,-27.35,0,*49
1491052017.57,44654,16.13,73890.8,11.73,-26.87,-26.87,0,*4E
1491052018.81,44655,16.13,73890.3,11.71,-26.61,-26.39,0,*40
1491052020.07,44656,16.13,73890.3,11.69,-25.97,-25.81,0,*40
1491052021.34,44657,16.19,73888.0,11.71,-26.39,-26.29,0,*4E
1491052022.55,44658,16.13,73886.5,11.69,-26.65,-26.49,0,*47
1491052023.79,44659,16.13,73890.8,11.65,-26.17,-26.03,0,*41
1491052025.04,44660,16.13,73890.5,11.67,-24.83,-24.57,0,*45
1491052026.28,44661,16.19,73888.3,11.67,-23.75,-23.59,0,*43
1491052027.48,44662,16.13,73884.3,11.65,-24.05,-23.89,0,*4F
1491052028.76,44663,16.13,73886.0,11.67,-23.85,-23.69,0,*4D
1491052030.02,44664,16.19,73886.8,11.67,-23.85,-23.59,0,*49
1491052031.25,44665,16.13,73884.0,11.67,-23.59,-23.43,0,*42
1491052032.52,44666,16.13,73886.5,11.71,-24.67,-24.61,0,*4B
1491052033.72,44667,16.13,73886.5,11.69,-24.97,-24.93,0,*41
1491052035.0,44668,16.13,73884.5,11.71,-24.11,-23.95,0,*48
1491052036.22,44669,16.19,73888.3,11.69,-24.47,-24.31,0,*4A
1491052037.43,44670,16.19,73884.3,11.69,-24.51,-24.31,0,*45
1491052038.69,44671,16.19,73890.0,11.69,-24.25,-23.99,0,*42
1491052039.93,44672,16.19,73888.5,11.71,-24.61,-24.47,0,*4C
1491052041.21,44673,16.19,73886.8,11.71,-23.85,-23.65,0,*47
1491052042.5,44674,16.13,73884.5,11.71,-23.49,-23.33,0,*43
1491052043.7,44675,16.19,73890.0,11.73,-22.67,-22.53,0,*4A
1491052044.93,44676,16.19,73888.0,11.75,-23.89,-23.89,0,*48
1491052046.16,44677,16.13,73886.8,11.73,-23.65,-23.59,0,*40
1491052047.4,44678,16.19,73892.0,11.73,-22.77,-22.53,0,*46
1491052048.65,44679,16.19,73886.0,11.75,-22.87,-22.73,0,*4C
1491052049.93,44680,16.13,73886.3,11.75,-23.03,-22.77,0,*43
1491052051.19,44681,16.19,73888.3,11.79,-22.97,-22.73,0,*46
1491052052.42,44682,16.13,73886.3,11.81,-23.03,-22.87,0,*45
1491052053.63,44683,16.13,73886.0,11.85,-22.57,-22.37,0,*4B
1491052054.88,44684,16.13,73884.3,11.85,-23.65,-23.33,0,*49
1491052056.12,44685,16.19,73890.3,11.85,-23.19,-23.09,0,*4A
1491052057.33,44686,16.19,73884.3,11.85,-23.09,-22.83,0,*4B
1491052058.59,44687,16.19,73884.5,11.87,-23.03,-22.87,0,*46
1491052059.86,44688,16.19,73884.0,11.87,-23.69,-23.53,0,*4D
1491052061.06,44689,16.19,73884.8,11.89,-23.59,-23.39,0,*4D
1491052062.26,44690,16.19,73888.3,11.89,-23.75,-23.59,0,*4D
1491052063.49,44691,16.13,73884.0,11.89,-25.03,-24.97,0,*4E
1491052064.78,44692,16.19,73884.3,11.87,-24.71,-24.41,0,*4C
1491052066.01,44693,16.19,73886.8,11.87,-24.51,-24.35,0,*4C
1491052067.28,44694,16.19,73888.8,11.87,-24.35,-24.21,0,*4C
1491052068.56,44695,16.19,73890.0,11.87,-24.71,-24.67,0,*4F
1491052069.8,44696,16.19,73890.3,11.85,-25.61,-25.71,0,*48
1491052071.01,44697,16.19,73892.0,11.85,-27.71,-27.71,0,*48
1491052072.27,44698,16.19,73888.0,11.79,-28.53,-28.63,0,*47
1491052073.51,44699,16.19,73888.3,11.73,-28.59,-28.53,0,*45
1491052074.76,44700,16.13,73886.0,11.69,-28.47,-28.43,0,*41
1491052076.03,44701,16.19,73884.8,11.67,-28.47,-28.47,0,*4A
1491052077.29,44702,16.19,73884.8,11.65,-28.05,-28.09,0,*47
1491052078.54,44703,16.19,73886.3,11.65,-28.75,-28.75,0,*4A
1491052079.8,44704,16.13,73886.0,11.59,-28.75,-28.63,0,*45
1491052081.07,44705,16.19,73890.5,11.57,-28.79,-28.79,0,*4D
1491052082.3,44706,16.19,73890.8,11.57,-27.29,-27.13,0,*47
1491052083.51,44707,16.19,73886.3,11.51,-26.39,-26.23,0,*42
1491052084.75,44708,16.19,73888.0,11.51,-25.55,-25.39,0,*4C
1491052085.96,44709,16.19,73886.8,11.51,-25.87,-25.87,0,*47
1491052087.21,44710,16.19,73884.5,11.49,-25.91,-25.81,0,*47
1491052088.44,44711,16.19,73884.8,11.49,-25.13,-24.93,0,*4E
1491052089.65,44712,16.19,73884.3,11.51,-25.49,-25.35,0,*46
1491052090.86,44713,16.19,73884.8,11.51,-25.87,-25.61,0,*44
1491052092.08,44714,16.19,73888.5,11.51,-25.61,-25.49,0,*41
1491052093.29,44715,16.19,73884.3,11.51,-26.07,-26.07,0,*4A
1491052094.57,44716,16.19,73886.0,11.49,-25.75,-25.55,0,*42
1491052095.8,44717,16.19,73886.8,11.49,-25.61,-25.23,0,*47
1491052097.05,44718,16.19,73890.0,11.47,-25.71,-25.49,0,*4B